Flag for Marshall Islands Weather past 2 weeks in Majuro, Marshall Islands

Now
85 °F

Cloudy.


Feels Like: 97 °F
Forecast: 82 / 85 °F
Wind: 12 mph from Northeast

Location: Majuro Atoll

Current Time: Dec 22, 2014 at 11:28:15 AM

Latest Report: Dec 22, 2014 at 10:50 AM


Visibility: 15 mi

Pressure: 29.78 "Hg

Humidity: 82%

Dew point: 79 °F

Location of MajuroLocation

Historic Weather in Majuro — Graph

°F

Majuro temperature yesterday

Maximum temperature yesterday: 87 °F (at 10:52 AM)
Minimum temperature yesterday: 79 °F (at 8:54 PM)
Average temperature yesterday: 83 °F

Past Weeks' High & Low Weather Summary

 TemperatureHumidityPressure
High88 °F (Dec 8, 11:52 AM)93% (Dec 21, 8:54 PM)29.88 "Hg (Dec 21, 8:54 PM)
Low78 °F (Dec 11, 4:53 AM)71% (Dec 15, 5:53 PM)29.70 "Hg (Dec 21, 4:51 PM)
Average83 °F82%29.80 "Hg
* Reported Dec 7 9:53 AM — Dec 22 9:57 AM, Majuro, Weather by CustomWeather, © 2014

Note: Actual official high and low records may vary slightly from our data, if they occured in-between our weather recording intervals... More about our weather records

Advertising

Majuro weather history for previous 24 hours

 ConditionsComfort  
Time TempWeatherWind HumidityBarometerVisibility
9:57 AM
Dec 22
83 °FCloudy.13 mph83%29.78 "Hg15 mi
8:50 AM82 °FCloudy.14 mph84%29.79 "Hg15 mi
7:52 AM80 °FCloudy.18 mph87%29.78 "Hg15 mi
6:52 AM80 °FSprinkles. Overcast.20 mph91%29.75 "Hg10 mi
5:54 AM81 °FOvercast.17 mph84%29.72 "Hg15 mi
4:50 AM81 °FOvercast.17 mph87%29.72 "Hg15 mi
3:50 AM80 °FSprinkles. Overcast.21 mph89%29.72 "Hg10 mi
2:56 AM79 °FOvercast.21 mph92%29.72 "Hg15 mi
12:56 AM82 °FOvercast.23 mph85%29.76 "Hg15 mi
11:52 PM
Dec 21
80 °FOvercast.23 mph89%29.78 "Hg15 mi
10:50 PM81 °FOvercast.14 mph87%29.79 "Hg15 mi
9:54 PM81 °FOvercast.16 mph87%29.80 "Hg15 mi
8:54 PM79 °FSprinkles. Overcast.16 mph93%29.80 "Hg10 mi
7:58 PM82 °FOvercast.12 mph82%29.77 "Hg15 mi
6:52 PM82 °FCloudy.17 mph88%29.75 "Hg15 mi
5:52 PM83 °FCloudy.16 mph80%29.72 "Hg15 mi
4:51 PM84 °FCloudy.15 mph80%29.70 "Hg15 mi
3:54 PM84 °FSprinkles. Cloudy.16 mph83%29.71 "Hg10 mi
2:50 PM85 °FCloudy.13 mph80%29.72 "Hg15 mi
1:54 PM84 °FBroken clouds.15 mph81%29.73 "Hg15 mi
12:52 PM87 °FBroken clouds.10 mph77%29.75 "Hg15 mi
11:52 AM87 °FBroken clouds.14 mph77%29.78 "Hg15 mi
Weather by CustomWeather, © 2014

See weather overviewHow to use our weather pages